Home > Time Zones > World Clock > Weather > China > Wuhan > Past weeks

Flag for China Weather past 2 weeks in Wuhan, Hubei, China

Now
73 °F

Passing clouds.


Feels Like: 70 °F
Forecast: 72 / 76 °F
Wind: 1 mph from North

Location: Wuhan Airport

Current Time: Sep 2, 2014 at 3:12:17 AM

Latest Report: Sep 2, 2014 at 2:00 AM


Visibility: N/A

Pressure: 29.83 "Hg

Humidity: 94%

Dew point: 72 °F

Location of WuhanLocation

Historic Weather in Wuhan — Graph

°F

Wuhan temperature yesterday

Maximum temperature yesterday: 79 °F (at 3:00 PM)
Minimum temperature yesterday: 72 °F (at 1:00 AM)
Average temperature yesterday: 75 °F

Past Weeks' High & Low Weather Summary

 TemperatureHumidityPressure
High91 °F (Aug 22, 2:00 PM)100% (Aug 18, 6:00 AM)29.98 "Hg (Aug 18, 6:00 AM)
Low70 °F (Aug 19, 4:00 AM)55% (Aug 22, 5:00 PM)29.65 "Hg (Aug 23, 4:00 PM)
Average79 °F86%29.84 "Hg
* Reported Aug 18 1:00 AM — Sep 2 1:00 AM, Wuhan, Weather by CustomWeather, © 2014

Note: Actual official high and low records may vary slightly from our data, if they occured in-between our weather recording intervals... More about our weather records

Advertising

Wuhan weather history for previous 24 hours

 ConditionsComfort  
Time TempWeatherWind HumidityBarometerVisibility
1:00 AM
Sep 2
75 °FPassing clouds.3 mph89%29.83 "HgN/A
12:00 AM75 °FPassing clouds.3 mph89%29.86 "HgN/A
11:00 PM
Sep 1
75 °FPassing clouds.6 mph89%29.86 "HgN/A
10:00 PM75 °FPassing clouds.6 mph89%29.89 "HgN/A
9:00 PM75 °FPassing clouds.3 mph89%29.89 "HgN/A
8:00 PM75 °FPassing clouds.3 mph94%29.86 "HgN/A
7:00 PM75 °FPassing clouds.1 mph94%29.83 "HgN/A
6:00 PM77 °FPartly sunny.3 mph89%29.83 "HgN/A
5:00 PM79 °FScattered clouds.6 mph79%29.83 "HgN/A
4:00 PM79 °FScattered clouds.1 mph84%29.83 "HgN/A
3:00 PM79 °FScattered clouds.1 mph84%29.83 "HgN/A
2:00 PM77 °FScattered clouds.3 mph83%29.83 "HgN/A
1:00 PM77 °FScattered clouds.3 mph83%29.86 "HgN/A
12:00 PM77 °FScattered clouds.3 mph83%29.89 "HgN/A
11:00 AM75 °FScattered clouds.3 mph89%29.89 "HgN/A
10:00 AM75 °FScattered clouds.6 mph89%29.89 "HgN/A
9:00 AM73 °FScattered clouds.3 mph94%29.89 "HgN/A
8:00 AM72 °FPassing clouds.3 mph100%29.86 "HgN/A
7:00 AM72 °FPassing clouds.6 mph94%29.86 "HgN/A
6:00 AM72 °FSunny.3 mph94%29.86 "Hg10 mi
5:00 AM72 °FClear.1 mph100%29.83 "Hg10 mi
4:00 AM72 °FClear.3 mph100%29.83 "Hg10 mi
3:00 AM72 °FLight rain. Passing clouds.1 mph100%29.83 "Hg3 mi
Weather by CustomWeather, © 2014

See weather overviewHow to use our weather pages